Time,TemperatureF,DewpointF,PressureIn,WindDirection,WindDirectionDegrees,WindSpeedMPH,WindSpeedGustMPH,Humidity,HourlyPrecipIn,Conditions,Clouds,dailyrainin,SoftwareType,DateUTC
2013-02-08 00:00:00,25.5,33.4,30.49,SE,143,0.0,1.0,55,0.00,,,0.00,meteohub,2013-02-08 05:00:00,
2013-02-08 00:05:00,25.3,33.4,30.49,SE,142,0.0,1.0,56,0.00,,,0.00,meteohub,2013-02-08 05:05:00,
2013-02-08 00:10:00,25.3,33.4,30.49,SE,143,0.0,0.0,57,0.00,,,0.00,meteohub,2013-02-08 05:10:00,
2013-02-08 00:15:00,25.3,33.4,30.49,SE,142,0.0,0.0,57,0.00,,,0.00,meteohub,2013-02-08 05:15:00,
2013-02-08 00:20:00,25.2,33.4,30.48,SE,143,0.0,0.0,58,0.00,,,0.00,meteohub,2013-02-08 05:20:00,
2013-02-08 00:25:00,25.0,33.3,30.49,SE,143,0.0,0.0,58,0.00,,,0.00,meteohub,2013-02-08 05:25:00,
2013-02-08 00:30:00,24.8,33.3,30.48,SE,143,0.0,0.0,58,0.00,,,0.00,meteohub,2013-02-08 05:30:00,
2013-02-08 00:35:00,24.6,33.1,30.48,SE,143,0.0,0.0,58,0.00,,,0.00,meteohub,2013-02-08 05:35:00,
2013-02-08 00:40:00,23.4,33.1,30.48,SE,145,0.0,0.0,62,0.00,,,0.00,meteohub,2013-02-08 05:40:00,
2013-02-08 00:45:00,23.0,33.1,30.47,SE,145,0.0,0.0,62,0.00,,,0.00,meteohub,2013-02-08 05:45:00,
2013-02-08 00:50:00,22.6,33.1,30.47,SE,145,0.0,0.0,63,0.00,,,0.00,meteohub,2013-02-08 05:50:00,
2013-02-08 00:55:00,22.5,33.1,30.47,SE,145,0.0,0.0,63,0.00,,,0.00,meteohub,2013-02-08 05:55:00,
2013-02-08 01:01:00,22.3,33.1,30.46,SE,145,0.0,0.0,63,0.00,,,0.00,meteohub,2013-02-08 06:01:00,
2013-02-08 01:06:00,22.1,33.1,30.47,SE,145,0.0,0.0,65,0.00,,,0.00,meteohub,2013-02-08 06:06:00,
2013-02-08 01:11:00,21.7,32.9,30.46,SE,145,0.0,0.0,65,0.00,,,0.00,meteohub,2013-02-08 06:11:00,
2013-02-08 01:16:00,21.6,32.9,30.46,SE,145,0.0,0.0,66,0.00,,,0.00,meteohub,2013-02-08 06:16:00,
2013-02-08 01:21:00,21.4,32.9,30.46,SE,145,0.0,0.0,67,0.00,,,0.00,meteohub,2013-02-08 06:21:00,
2013-02-08 01:26:00,21.2,32.9,30.46,SE,145,0.0,0.0,67,0.00,,,0.00,meteohub,2013-02-08 06:26:00,
2013-02-08 01:31:00,21.0,32.9,30.46,SE,145,0.0,0.0,69,0.00,,,0.00,meteohub,2013-02-08 06:31:00,
2013-02-08 01:36:00,20.8,32.7,30.46,SE,145,0.0,0.0,67,0.00,,,0.00,meteohub,2013-02-08 06:36:00,
2013-02-08 01:41:00,20.8,32.7,30.46,SE,145,0.0,0.0,65,0.00,,,0.00,meteohub,2013-02-08 06:41:00,
2013-02-08 01:46:00,20.8,32.5,30.46,SE,145,0.0,0.0,63,0.00,,,0.00,meteohub,2013-02-08 06:46:00,
2013-02-08 01:51:00,20.8,32.5,30.45,SE,145,0.0,0.0,60,0.00,,,0.00,meteohub,2013-02-08 06:51:00,
2013-02-08 01:56:00,21.0,32.4,30.45,SE,145,0.0,0.0,58,0.00,,,0.00,meteohub,2013-02-08 06:56:00,
2013-02-08 02:01:00,21.2,32.5,30.45,SE,145,0.0,1.0,57,0.00,,,0.00,meteohub,2013-02-08 07:01:00,
2013-02-08 02:06:00,21.4,32.5,30.45,SE,145,0.0,1.0,57,0.00,,,0.00,meteohub,2013-02-08 07:06:00,
2013-02-08 02:11:00,21.6,32.4,30.44,SE,145,0.0,1.0,56,0.00,,,0.00,meteohub,2013-02-08 07:11:00,
2013-02-08 02:16:00,21.7,32.4,30.43,SE,145,0.0,1.0,56,0.00,,,0.00,meteohub,2013-02-08 07:16:00,
2013-02-08 02:21:00,21.9,32.4,30.43,SE,145,0.0,1.0,56,0.00,,,0.00,meteohub,2013-02-08 07:21:00,
2013-02-08 02:26:00,21.9,32.4,30.43,SE,145,0.0,2.0,55,0.00,,,0.00,meteohub,2013-02-08 07:26:00,
2013-02-08 02:31:00,22.1,32.4,30.43,SE,145,0.0,2.0,56,0.00,,,0.00,meteohub,2013-02-08 07:31:00,
2013-02-08 02:36:00,22.3,32.4,30.42,SE,145,0.0,2.0,56,0.00,,,0.00,meteohub,2013-02-08 07:36:00,
2013-02-08 02:41:00,22.3,32.4,30.42,SE,145,0.0,1.0,56,0.00,,,0.00,meteohub,2013-02-08 07:41:00,
2013-02-08 02:46:00,22.3,32.4,30.41,SE,145,0.0,1.0,57,0.00,,,0.00,meteohub,2013-02-08 07:46:00,
2013-02-08 02:51:00,22.5,32.4,30.41,SE,145,0.0,0.0,57,0.00,,,0.00,meteohub,2013-02-08 07:51:00,
2013-02-08 02:56:00,22.5,32.4,30.41,SE,145,0.0,0.0,57,0.00,,,0.00,meteohub,2013-02-08 07:56:00,
2013-02-08 03:01:00,22.5,32.4,30.41,SE,145,0.0,0.0,57,0.00,,,0.00,meteohub,2013-02-08 08:01:00,
2013-02-08 03:06:00,22.5,32.4,30.41,SE,145,0.0,0.0,58,0.00,,,0.00,meteohub,2013-02-08 08:06:00,
2013-02-08 03:11:00,22.5,32.4,30.41,SE,145,0.0,0.0,58,0.00,,,0.00,meteohub,2013-02-08 08:11:00,
2013-02-08 03:16:00,22.5,32.4,30.40,SE,145,0.0,0.0,59,0.00,,,0.00,meteohub,2013-02-08 08:16:00,
2013-02-08 03:21:00,22.5,32.4,30.40,SE,145,0.0,0.0,59,0.00,,,0.00,meteohub,2013-02-08 08:21:00,
2013-02-08 03:26:00,22.5,32.2,30.40,SE,145,0.0,0.0,60,0.00,,,0.00,meteohub,2013-02-08 08:26:00,
2013-02-08 03:31:00,22.5,32.2,30.40,SE,145,0.0,0.0,61,0.00,,,0.00,meteohub,2013-02-08 08:31:00,
2013-02-08 03:36:00,22.6,32.4,30.39,SE,145,0.0,1.0,61,0.00,,,0.00,meteohub,2013-02-08 08:36:00,
2013-02-08 03:41:00,22.6,32.4,30.39,SE,145,0.0,1.0,61,0.00,,,0.00,meteohub,2013-02-08 08:41:00,
2013-02-08 03:46:00,22.6,32.4,30.39,SE,145,0.0,1.0,62,0.00,,,0.00,meteohub,2013-02-08 08:46:00,
2013-02-08 03:51:00,22.6,32.4,30.39,SE,145,0.0,1.0,62,0.00,,,0.00,meteohub,2013-02-08 08:51:00,
2013-02-08 03:56:00,22.6,32.4,30.39,SE,145,0.0,1.0,61,0.00,,,0.00,meteohub,2013-02-08 08:56:00,
2013-02-08 04:01:00,22.6,32.4,30.39,SE,145,0.0,1.0,61,0.00,,,0.00,meteohub,2013-02-08 09:01:00,
2013-02-08 04:06:00,22.6,32.4,30.39,SE,145,0.0,0.0,62,0.00,,,0.00,meteohub,2013-02-08 09:06:00,
2013-02-08 04:11:00,22.6,32.4,30.39,SE,145,0.0,0.0,61,0.00,,,0.00,meteohub,2013-02-08 09:11:00,
2013-02-08 04:16:00,22.6,32.4,30.38,SE,145,0.0,0.0,62,0.00,,,0.00,meteohub,2013-02-08 09:16:00,
2013-02-08 04:21:00,22.6,32.2,30.38,SE,145,0.0,0.0,62,0.00,,,0.00,meteohub,2013-02-08 09:21:00,
2013-02-08 04:26:00,22.6,32.2,30.38,SE,145,0.0,0.0,63,0.00,,,0.00,meteohub,2013-02-08 09:26:00,
2013-02-08 04:31:00,22.8,32.0,30.39,SE,145,0.0,0.0,63,0.00,,,0.00,meteohub,2013-02-08 09:31:00,
2013-02-08 04:36:00,22.8,32.2,30.38,SE,145,0.0,0.0,63,0.00,,,0.00,meteohub,2013-02-08 09:36:00,
2013-02-08 04:41:00,22.8,32.2,30.38,SE,145,0.0,0.0,64,0.00,,,0.00,meteohub,2013-02-08 09:41:00,
2013-02-08 04:46:00,22.8,32.4,30.38,SE,145,0.0,0.0,64,0.00,,,0.00,meteohub,2013-02-08 09:46:00,
2013-02-08 04:51:00,22.8,32.2,30.38,SE,145,0.0,1.0,65,0.00,,,0.00,meteohub,2013-02-08 09:51:00,
2013-02-08 04:56:00,24.1,32.2,30.37,SE,142,0.0,1.0,65,0.00,,,0.00,meteohub,2013-02-08 09:56:00,
2013-02-08 05:01:00,24.1,32.2,30.37,SE,142,0.0,1.0,65,0.00,,,0.00,meteohub,2013-02-08 10:01:00,
2013-02-08 05:07:00,24.1,32.4,30.37,SE,143,0.0,1.0,65,0.00,,,0.00,meteohub,2013-02-08 10:07:00,
2013-02-08 05:12:00,24.3,32.2,30.37,SE,143,0.0,0.0,66,0.00,,,0.00,meteohub,2013-02-08 10:12:00,
2013-02-08 05:17:00,24.3,32.2,30.37,SE,142,0.0,0.0,67,0.00,,,0.00,meteohub,2013-02-08 10:17:00,
2013-02-08 05:22:00,24.3,32.2,30.37,SE,143,0.0,0.0,67,0.00,,,0.00,meteohub,2013-02-08 10:22:00,
2013-02-08 05:27:00,24.3,32.0,30.37,SE,143,0.0,0.0,68,0.00,,,0.00,meteohub,2013-02-08 10:27:00,
2013-02-08 05:32:00,24.3,32.0,30.36,SE,143,0.0,1.0,69,0.00,,,0.00,meteohub,2013-02-08 10:32:00,
2013-02-08 05:37:00,24.3,32.0,30.36,SE,142,0.0,1.0,70,0.00,,,0.00,meteohub,2013-02-08 10:37:00,
2013-02-08 05:42:00,24.3,32.2,30.35,SE,143,0.0,1.0,71,0.00,,,0.00,meteohub,2013-02-08 10:42:00,
2013-02-08 05:47:00,24.4,32.2,30.35,SE,143,0.0,1.0,71,0.00,,,0.00,meteohub,2013-02-08 10:47:00,
2013-02-08 05:52:00,24.4,32.2,30.35,SE,143,0.0,1.0,72,0.00,,,0.00,meteohub,2013-02-08 10:52:00,
2013-02-08 05:57:00,24.4,32.2,30.35,SE,142,0.0,1.0,73,0.00,,,0.00,meteohub,2013-02-08 10:57:00,
2013-02-08 06:02:00,24.4,32.4,30.36,SE,143,0.0,1.0,73,0.00,,,0.00,meteohub,2013-02-08 11:02:00,
2013-02-08 06:07:00,24.6,32.4,30.36,SE,143,0.0,1.0,74,0.00,,,0.00,meteohub,2013-02-08 11:07:00,
2013-02-08 06:12:00,24.6,32.4,30.35,SE,142,0.0,1.0,75,0.00,,,0.00,meteohub,2013-02-08 11:12:00,
2013-02-08 06:17:00,24.8,32.4,30.35,SE,143,0.0,1.0,76,0.00,,,0.00,meteohub,2013-02-08 11:17:00,
2013-02-08 06:22:00,24.8,32.4,30.35,SE,143,0.0,1.0,76,0.00,,,0.00,meteohub,2013-02-08 11:22:00,
2013-02-08 06:27:00,25.0,32.4,30.35,SE,143,0.0,1.0,77,0.00,,,0.00,meteohub,2013-02-08 11:27:00,
2013-02-08 06:32:00,25.0,32.4,30.35,SE,142,0.0,2.0,78,0.00,,,0.00,meteohub,2013-02-08 11:32:00,
2013-02-08 06:37:00,25.0,32.4,30.34,SE,143,1.0,2.0,78,0.00,,,0.00,meteohub,2013-02-08 11:37:00,
2013-02-08 06:42:00,25.0,32.4,30.34,SE,140,0.0,2.0,78,0.00,,,0.00,meteohub,2013-02-08 11:42:00,
2013-02-08 06:47:00,25.0,32.7,30.34,SE,140,0.0,2.0,79,0.00,,,0.00,meteohub,2013-02-08 11:47:00,
2013-02-08 06:52:00,25.0,33.1,30.34,East,95,0.0,2.0,79,0.00,,,0.00,meteohub,2013-02-08 11:52:00,
2013-02-08 06:57:00,25.0,33.3,30.34,ENE,63,0.0,2.0,80,0.00,,,0.00,meteohub,2013-02-08 11:57:00,
2013-02-08 07:02:00,25.0,33.4,30.34,ENE,63,0.0,2.0,80,0.00,,,0.00,meteohub,2013-02-08 12:02:00,
2013-02-08 07:07:00,25.0,33.4,30.34,ENE,75,0.0,2.0,81,0.00,,,0.00,meteohub,2013-02-08 12:07:00,
2013-02-08 07:12:00,25.0,33.4,30.34,NE,41,0.0,2.0,81,0.00,,,0.00,meteohub,2013-02-08 12:12:00,
2013-02-08 07:17:00,25.0,33.4,30.35,ESE,106,0.0,3.0,82,0.00,,,0.00,meteohub,2013-02-08 12:17:00,
2013-02-08 07:22:00,24.8,33.4,30.34,ESE,105,1.0,4.0,82,0.00,,,0.00,meteohub,2013-02-08 12:22:00,
2013-02-08 07:27:00,24.6,33.6,30.34,ESE,102,2.0,4.0,83,0.00,,,0.00,meteohub,2013-02-08 12:27:00,
2013-02-08 07:32:00,24.6,33.8,30.34,ESE,106,0.0,4.0,83,0.00,,,0.00,meteohub,2013-02-08 12:32:00,
2013-02-08 07:37:00,24.4,34.0,30.34,NNE,30,0.0,3.0,83,0.00,,,0.00,meteohub,2013-02-08 12:37:00,
2013-02-08 07:42:00,24.4,34.0,30.34,SE,145,1.0,2.0,83,0.00,,,0.00,meteohub,2013-02-08 12:42:00,
2013-02-08 07:47:00,24.4,34.0,30.33,East,98,2.0,5.0,84,0.00,,,0.00,meteohub,2013-02-08 12:47:00,
2013-02-08 07:52:00,24.3,34.0,30.33,SE,126,0.0,5.0,84,0.00,,,0.00,meteohub,2013-02-08 12:52:00,
2013-02-08 07:57:00,24.3,34.0,30.33,ESE,123,0.0,5.0,85,0.00,,,0.00,meteohub,2013-02-08 12:57:00,
2013-02-08 08:02:00,24.3,34.3,30.33,ENE,63,0.0,5.0,85,0.00,,,0.00,meteohub,2013-02-08 13:02:00,
2013-02-08 08:07:00,24.3,34.5,30.33,East,94,0.0,5.0,85,0.00,,,0.00,meteohub,2013-02-08 13:07:00,
2013-02-08 08:12:00,24.1,34.5,30.32,SE,134,0.0,4.0,85,0.00,,,0.00,meteohub,2013-02-08 13:12:00,
2013-02-08 08:17:00,24.1,34.5,30.32,SE,128,0.0,5.0,85,0.00,,,0.00,meteohub,2013-02-08 13:17:00,
2013-02-08 08:22:00,24.3,34.5,30.32,NNE,24,0.0,5.0,85,0.00,,,0.00,meteohub,2013-02-08 13:22:00,
2013-02-08 08:27:00,24.3,34.3,30.32,SE,146,0.0,4.0,85,0.00,,,0.00,meteohub,2013-02-08 13:27:00,
2013-02-08 08:32:00,24.3,34.3,30.31,SE,146,0.0,4.0,86,0.00,,,0.00,meteohub,2013-02-08 13:32:00,
2013-02-08 08:37:00,24.3,34.5,30.31,SSE,148,0.0,4.0,85,0.00,,,0.00,meteohub,2013-02-08 13:37:00,
2013-02-08 08:42:00,24.1,34.9,30.31,North,9,0.0,4.0,85,0.00,,,0.00,meteohub,2013-02-08 13:42:00,
2013-02-08 08:47:00,23.9,34.9,30.31,SE,137,4.0,4.0,85,0.00,,,0.00,meteohub,2013-02-08 13:47:00,
2013-02-08 08:52:00,23.7,34.9,30.31,NNW,328,1.0,5.0,85,0.00,,,0.00,meteohub,2013-02-08 13:52:00,
2013-02-08 08:57:00,23.7,34.9,30.31,SE,144,2.0,5.0,92,0.00,,,0.00,meteohub,2013-02-08 13:57:00,
2013-02-08 09:02:00,23.5,34.9,30.30,SE,143,0.0,5.0,85,0.00,,,0.00,meteohub,2013-02-08 14:02:00,
2013-02-08 09:07:00,23.7,34.9,30.30,SE,145,1.0,5.0,86,0.00,,,0.00,meteohub,2013-02-08 14:07:00,
2013-02-08 09:12:00,23.5,34.9,30.30,SSE,148,3.0,5.0,86,0.00,,,0.00,meteohub,2013-02-08 14:12:00,
2013-02-08 09:17:00,23.5,35.1,30.30,East,93,0.0,5.0,86,0.00,,,0.00,meteohub,2013-02-08 14:17:00,
2013-02-08 09:22:00,23.7,35.2,30.29,East,92,0.0,5.0,86,0.00,,,0.00,meteohub,2013-02-08 14:22:00,
2013-02-08 09:27:00,23.9,35.4,30.29,NE,48,1.0,5.0,86,0.00,,,0.00,meteohub,2013-02-08 14:27:00,
2013-02-08 09:32:00,23.9,35.4,30.30,SE,142,0.0,5.0,86,0.00,,,0.00,meteohub,2013-02-08 14:32:00,
2013-02-08 09:37:00,24.1,35.4,30.30,SSE,161,0.0,5.0,86,0.00,,,0.00,meteohub,2013-02-08 14:37:00,
2013-02-08 09:42:00,23.9,35.4,30.29,SE,138,0.0,5.0,86,0.00,,,0.00,meteohub,2013-02-08 14:42:00,
2013-02-08 09:47:00,24.1,35.2,30.29,SE,139,0.0,5.0,86,0.00,,,0.00,meteohub,2013-02-08 14:47:00,
2013-02-08 09:52:00,24.1,35.4,30.28,NE,45,0.0,5.0,87,0.00,,,0.00,meteohub,2013-02-08 14:52:00,
2013-02-08 09:57:00,24.3,35.6,30.29,SE,126,0.0,1.0,87,0.00,,,0.00,meteohub,2013-02-08 14:57:00,
2013-02-08 10:02:00,24.3,35.8,30.29,SE,126,0.0,4.0,87,0.00,,,0.00,meteohub,2013-02-08 15:02:00,
2013-02-08 10:07:00,24.4,35.8,30.29,SE,126,0.0,4.0,87,0.00,,,0.00,meteohub,2013-02-08 15:07:00,
2013-02-08 10:12:00,24.6,35.8,30.28,SE,124,0.0,4.0,87,0.00,,,0.00,meteohub,2013-02-08 15:12:00,
2013-02-08 10:17:00,24.4,35.8,30.28,NNW,342,0.0,4.0,87,0.00,,,0.00,meteohub,2013-02-08 15:17:00,
2013-02-08 10:22:00,24.6,35.8,30.27,ESE,121,0.0,4.0,87,0.00,,,0.00,meteohub,2013-02-08 15:22:00,
2013-02-08 10:27:00,24.6,35.8,30.27,ESE,121,0.0,4.0,87,0.00,,,0.00,meteohub,2013-02-08 15:27:00,
2013-02-08 10:32:00,24.4,35.6,30.27,NNW,348,0.0,3.0,87,0.00,,,0.00,meteohub,2013-02-08 15:32:00,
2013-02-08 10:37:00,24.4,35.8,30.27,East,101,0.0,4.0,87,0.00,,,0.00,meteohub,2013-02-08 15:37:00,
2013-02-08 10:42:00,24.4,35.8,30.26,East,101,0.0,4.0,88,0.00,,,0.00,meteohub,2013-02-08 15:42:00,
2013-02-08 10:47:00,24.4,35.8,30.26,NE,36,1.0,2.0,88,0.00,,,0.00,meteohub,2013-02-08 15:47:00,
2013-02-08 10:52:00,24.6,35.8,30.25,East,92,0.0,5.0,88,0.00,,,0.00,meteohub,2013-02-08 15:52:00,
2013-02-08 10:57:00,24.8,35.8,30.25,East,94,0.0,5.0,88,0.00,,,0.00,meteohub,2013-02-08 15:57:00,
2013-02-08 11:02:00,24.8,35.8,30.25,NNE,16,0.0,5.0,88,0.00,,,0.00,meteohub,2013-02-08 16:02:00,
2013-02-08 11:07:00,25.0,35.6,30.24,North,355,0.0,2.0,88,0.00,,,0.00,meteohub,2013-02-08 16:07:00,
2013-02-08 11:12:00,25.0,35.6,30.23,North,9,0.0,2.0,88,0.00,,,0.00,meteohub,2013-02-08 16:12:00,
2013-02-08 11:17:00,25.0,35.8,30.23,NW,308,2.0,4.0,88,0.00,,,0.00,meteohub,2013-02-08 16:17:00,
2013-02-08 11:22:00,24.6,35.8,30.23,SE,130,4.0,5.0,88,0.00,,,0.00,meteohub,2013-02-08 16:22:00,
2013-02-08 11:27:00,24.6,36.0,30.22,North,5,0.0,6.0,89,0.00,,,0.00,meteohub,2013-02-08 16:27:00,
2013-02-08 11:32:00,24.4,35.8,30.22,ESE,120,0.0,6.0,89,0.00,,,0.00,meteohub,2013-02-08 16:32:00,
2013-02-08 11:37:00,24.3,35.8,30.21,East,94,0.0,6.0,89,0.00,,,0.00,meteohub,2013-02-08 16:37:00,
2013-02-08 11:42:00,24.4,35.8,30.21,East,91,0.0,5.0,89,0.00,,,0.00,meteohub,2013-02-08 16:42:00,
2013-02-08 11:47:00,24.4,35.8,30.20,SSE,157,0.0,5.0,89,0.00,,,0.00,meteohub,2013-02-08 16:47:00,
2013-02-08 11:52:00,24.3,35.8,30.19,SE,126,0.0,5.0,89,0.00,,,0.00,meteohub,2013-02-08 16:52:00,
2013-02-08 11:57:00,24.3,35.8,30.19,ESE,123,0.0,4.0,89,0.00,,,0.00,meteohub,2013-02-08 16:57:00,
2013-02-08 12:02:00,24.3,36.0,30.18,NE,52,0.0,4.0,90,0.00,,,0.00,meteohub,2013-02-08 17:02:00,
2013-02-08 12:08:00,24.3,36.1,30.18,ENE,57,0.0,4.0,90,0.00,,,0.00,meteohub,2013-02-08 17:08:00,
2013-02-08 12:13:00,24.3,36.1,30.18,SE,134,0.0,5.0,90,0.00,,,0.00,meteohub,2013-02-08 17:13:00,
2013-02-08 12:18:00,24.4,36.1,30.17,SE,138,1.0,5.0,90,0.00,,,0.00,meteohub,2013-02-08 17:18:00,
2013-02-08 12:23:00,24.3,36.0,30.16,SSE,147,2.0,5.0,90,0.00,,,0.00,meteohub,2013-02-08 17:23:00,
2013-02-08 12:28:00,24.3,36.0,30.16,ESE,122,0.0,5.0,90,0.00,,,0.00,meteohub,2013-02-08 17:28:00,
2013-02-08 12:33:00,24.3,36.0,30.16,ESE,106,0.0,5.0,90,0.00,,,0.00,meteohub,2013-02-08 17:33:00,
2013-02-08 12:38:00,24.3,36.0,30.15,ESE,122,0.0,5.0,90,0.00,,,0.00,meteohub,2013-02-08 17:38:00,
2013-02-08 12:43:00,24.3,36.0,30.15,SSE,152,0.0,8.0,90,0.00,,,0.00,meteohub,2013-02-08 17:43:00,
2013-02-08 12:48:00,24.1,36.1,30.14,SSE,161,0.0,8.0,90,0.00,,,0.00,meteohub,2013-02-08 17:48:00,
2013-02-08 12:53:00,24.1,36.1,30.14,NE,36,0.0,4.0,90,0.00,,,0.00,meteohub,2013-02-08 17:53:00,
2013-02-08 12:58:00,24.3,36.1,30.14,SE,145,1.0,4.0,91,0.00,,,0.00,meteohub,2013-02-08 17:58:00,
2013-02-08 13:03:00,24.3,36.1,30.14,East,96,1.0,4.0,91,0.00,,,0.00,meteohub,2013-02-08 18:03:00,
2013-02-08 13:08:00,24.1,36.0,30.14,SSE,151,4.0,4.0,91,0.00,,,0.00,meteohub,2013-02-08 18:08:00,
2013-02-08 13:13:00,23.7,35.8,30.14,SE,134,0.0,5.0,90,0.00,,,0.00,meteohub,2013-02-08 18:13:00,
2013-02-08 13:18:00,23.7,35.8,30.13,ESE,107,2.0,5.0,91,0.00,,,0.00,meteohub,2013-02-08 18:18:00,
2013-02-08 13:23:00,23.5,35.6,30.13,East,83,1.0,5.0,91,0.00,,,0.00,meteohub,2013-02-08 18:23:00,
2013-02-08 13:28:00,23.7,35.8,30.12,SE,126,0.0,4.0,91,0.00,,,0.00,meteohub,2013-02-08 18:28:00,
2013-02-08 13:33:00,23.7,35.8,30.12,ESE,113,0.0,5.0,91,0.00,,,0.00,meteohub,2013-02-08 18:33:00,
2013-02-08 13:38:00,23.5,36.0,30.12,SE,129,4.0,5.0,91,0.00,,,0.00,meteohub,2013-02-08 18:38:00,
2013-02-08 13:43:00,23.5,36.0,30.12,SSE,157,0.0,4.0,91,0.00,,,0.00,meteohub,2013-02-08 18:43:00,
2013-02-08 13:48:00,23.5,35.8,30.11,SE,130,4.0,6.0,91,0.00,,,0.00,meteohub,2013-02-08 18:48:00,
2013-02-08 13:54:00,23.5,35.8,30.10,East,98,4.0,6.0,91,0.00,,,0.00,meteohub,2013-02-08 18:54:00,
2013-02-08 13:59:00,23.4,35.8,30.10,East,99,4.0,6.0,91,0.00,,,0.00,meteohub,2013-02-08 18:59:00,
2013-02-08 14:04:00,23.4,35.8,30.10,East,96,0.0,7.0,91,0.00,,,0.00,meteohub,2013-02-08 19:04:00,
2013-02-08 14:09:00,23.4,35.8,30.09,ESE,107,0.0,7.0,91,0.00,,,0.00,meteohub,2013-02-08 19:09:00,
2013-02-08 14:14:00,23.4,36.0,30.09,SE,132,0.0,6.0,91,0.00,,,0.00,meteohub,2013-02-08 19:14:00,
2013-02-08 14:19:00,23.4,35.8,30.08,SSE,163,1.0,6.0,91,0.00,,,0.00,meteohub,2013-02-08 19:19:00,
2013-02-08 14:24:00,23.2,35.8,30.08,ESE,105,5.0,5.0,91,0.00,,,0.00,meteohub,2013-02-08 19:24:00,
2013-02-08 14:29:00,23.2,35.8,30.07,ESE,119,4.0,6.0,91,0.00,,,0.00,meteohub,2013-02-08 19:29:00,
2013-02-08 14:34:00,23.0,35.8,30.07,East,98,1.0,6.0,91,0.00,,,0.00,meteohub,2013-02-08 19:34:00,
2013-02-08 14:39:00,22.8,35.8,30.07,SE,137,3.0,6.0,91,0.00,,,0.00,meteohub,2013-02-08 19:39:00,
2013-02-08 14:44:00,22.8,35.8,30.06,SW,233,3.0,5.0,91,0.00,,,0.00,meteohub,2013-02-08 19:44:00,
2013-02-08 14:49:00,22.8,36.0,30.07,SE,128,0.0,5.0,91,0.00,,,0.00,meteohub,2013-02-08 19:49:00,
2013-02-08 14:54:00,22.6,36.0,30.07,SE,144,2.0,5.0,91,0.00,,,0.00,meteohub,2013-02-08 19:54:00,
2013-02-08 14:59:00,22.5,36.0,30.06,SSE,165,1.0,5.0,91,0.00,,,0.00,meteohub,2013-02-08 19:59:00,
2013-02-08 15:04:00,22.3,35.8,30.06,ESE,117,1.0,7.0,91,0.00,,,0.00,meteohub,2013-02-08 20:04:00,
2013-02-08 15:09:00,22.1,35.8,30.06,SE,146,1.0,7.0,91,0.00,,,0.00,meteohub,2013-02-08 20:09:00,
2013-02-08 15:14:00,21.9,34.3,30.05,SSE,155,2.0,7.0,91,0.00,,,0.00,meteohub,2013-02-08 20:14:00,
2013-02-08 15:19:00,21.9,35.6,30.05,North,355,0.0,6.0,91,0.00,,,0.00,meteohub,2013-02-08 20:19:00,
2013-02-08 15:24:00,21.9,35.8,30.04,SE,129,1.0,6.0,91,0.00,,,0.00,meteohub,2013-02-08 20:24:00,
2013-02-08 15:29:00,21.7,35.8,30.04,ESE,109,1.0,6.0,91,0.00,,,0.00,meteohub,2013-02-08 20:29:00,
2013-02-08 15:34:00,21.7,36.0,30.03,ESE,113,3.0,6.0,91,0.00,,,0.00,meteohub,2013-02-08 20:34:00,
2013-02-08 15:39:00,21.6,36.0,30.03,South,177,2.0,6.0,91,0.00,,,0.00,meteohub,2013-02-08 20:39:00,
2013-02-08 15:44:00,21.6,36.0,30.02,SSE,150,0.0,6.0,91,0.00,,,0.00,meteohub,2013-02-08 20:44:00,
2013-02-08 15:49:00,21.6,36.1,30.01,SE,139,0.0,6.0,91,0.00,,,0.00,meteohub,2013-02-08 20:49:00,
2013-02-08 15:54:00,21.6,36.3,30.01,SE,137,1.0,5.0,91,0.00,,,0.00,meteohub,2013-02-08 20:54:00,
2013-02-08 15:59:00,21.6,35.1,30.00,ESE,121,1.0,4.0,91,0.00,,,0.00,meteohub,2013-02-08 20:59:00,
2013-02-08 16:04:00,21.6,35.1,30.00,SE,144,4.0,6.0,91,0.00,,,0.00,meteohub,2013-02-08 21:04:00,
2013-02-08 16:09:00,21.6,34.9,29.99,SSE,161,4.0,6.0,91,0.00,,,0.00,meteohub,2013-02-08 21:09:00,
2013-02-08 16:14:00,21.4,34.9,29.99,ESE,117,2.0,6.0,91,0.00,,,0.00,meteohub,2013-02-08 21:14:00,
2013-02-08 16:19:00,21.2,34.9,29.99,SE,144,0.0,7.0,91,0.00,,,0.00,meteohub,2013-02-08 21:19:00,
2013-02-08 16:24:00,21.0,35.1,29.98,SSE,153,0.0,7.0,91,0.00,,,0.00,meteohub,2013-02-08 21:24:00,
2013-02-08 16:29:00,21.0,35.2,29.98,SE,138,2.0,7.0,91,0.00,,,0.00,meteohub,2013-02-08 21:29:00,
2013-02-08 16:34:00,21.0,35.1,29.98,SSE,168,1.0,7.0,91,0.00,,,0.00,meteohub,2013-02-08 21:34:00,
2013-02-08 16:39:00,21.0,35.1,29.97,South,176,1.0,5.0,91,0.00,,,0.00,meteohub,2013-02-08 21:39:00,
2013-02-08 16:44:00,21.0,34.9,29.96,SE,145,1.0,5.0,91,0.00,,,0.00,meteohub,2013-02-08 21:44:00,
2013-02-08 16:49:00,21.0,35.1,29.96,East,101,1.0,8.0,91,0.00,,,0.00,meteohub,2013-02-08 21:49:00,
2013-02-08 16:54:00,21.0,35.2,29.95,SE,143,2.0,8.0,91,0.00,,,0.00,meteohub,2013-02-08 21:54:00,
2013-02-08 17:00:00,21.0,35.2,29.94,North,0,0.0,8.0,92,0.00,,,0.00,meteohub,2013-02-08 22:00:00,
2013-02-08 17:04:00,21.0,35.2,29.95,SE,128,4.0,7.0,92,0.00,,,0.00,meteohub,2013-02-08 22:04:00,
2013-02-08 17:10:00,21.0,35.1,29.94,ESE,119,1.0,7.0,92,0.00,,,0.00,meteohub,2013-02-08 22:10:00,
2013-02-08 17:15:00,21.0,34.9,29.94,SSE,152,0.0,7.0,92,0.00,,,0.00,meteohub,2013-02-08 22:15:00,
2013-02-08 17:20:00,21.2,34.9,29.93,NE,39,1.0,7.0,92,0.00,,,0.00,meteohub,2013-02-08 22:20:00,
2013-02-08 17:25:00,21.2,36.3,29.93,East,101,4.0,8.0,92,0.00,,,0.00,meteohub,2013-02-08 22:25:00,
2013-02-08 17:30:00,21.2,36.5,29.94,SSE,155,2.0,8.0,92,0.00,,,0.00,meteohub,2013-02-08 22:30:00,
2013-02-08 17:35:00,21.4,35.4,29.93,SSE,167,0.0,8.0,92,0.00,,,0.00,meteohub,2013-02-08 22:35:00,
2013-02-08 17:40:00,21.4,35.2,29.94,ENE,61,1.0,7.0,92,0.00,,,0.00,meteohub,2013-02-08 22:40:00,
2013-02-08 17:45:00,21.4,35.2,29.93,SW,225,1.0,8.0,92,0.00,,,0.00,meteohub,2013-02-08 22:45:00,
2013-02-08 17:50:00,21.4,35.1,29.93,North,11,1.0,8.0,92,0.00,,,0.00,meteohub,2013-02-08 22:50:00,
2013-02-08 17:55:00,21.4,34.9,29.93,NNW,328,1.0,8.0,92,0.00,,,0.00,meteohub,2013-02-08 22:55:00,
2013-02-08 18:00:00,21.4,35.1,29.92,ESE,116,0.0,8.0,92,0.00,,,0.00,meteohub,2013-02-08 23:00:00,
2013-02-08 18:05:00,21.4,36.5,29.92,SSE,163,2.0,8.0,92,0.00,,,0.00,meteohub,2013-02-08 23:05:00,
2013-02-08 18:10:00,21.4,36.7,29.92,SSE,153,2.0,8.0,92,0.00,,,0.00,meteohub,2013-02-08 23:10:00,
2013-02-08 18:15:00,21.4,35.4,29.92,East,98,5.0,9.0,92,0.00,,,0.00,meteohub,2013-02-08 23:15:00,
2013-02-08 18:20:00,21.2,35.4,29.91,ESE,107,0.0,9.0,92,0.00,,,0.00,meteohub,2013-02-08 23:20:00,
2013-02-08 18:25:00,21.2,35.2,29.91,SSE,160,1.0,9.0,92,0.00,,,0.00,meteohub,2013-02-08 23:25:00,
2013-02-08 18:30:00,21.0,35.2,29.91,WSW,254,2.0,6.0,92,0.00,,,0.00,meteohub,2013-02-08 23:30:00,
2013-02-08 18:35:00,21.0,36.5,29.91,SE,142,2.0,6.0,92,0.00,,,0.00,meteohub,2013-02-08 23:35:00,
2013-02-08 18:40:00,21.0,36.7,29.90,WNW,287,3.0,8.0,92,0.00,,,0.00,meteohub,2013-02-08 23:40:00,
2013-02-08 18:45:00,20.8,37.9,29.89,NE,48,4.0,8.0,92,0.00,,,0.00,meteohub,2013-02-08 23:45:00,
2013-02-08 18:50:00,20.8,36.9,29.89,SE,128,0.0,7.0,92,0.00,,,0.00,meteohub,2013-02-08 23:50:00,
2013-02-08 18:55:00,20.7,36.9,29.88,SE,134,4.0,8.0,92,0.00,,,0.00,meteohub,2013-02-08 23:55:00,
2013-02-08 19:00:00,20.7,36.7,29.87,South,176,1.0,8.0,92,0.00,,,0.00,meteohub,2013-02-09 00:00:00,
2013-02-08 19:05:00,20.5,36.7,29.86,North,11,3.0,8.0,92,0.00,,,0.00,meteohub,2013-02-09 00:05:00,
2013-02-08 19:10:00,20.3,36.7,29.86,SSE,157,1.0,8.0,92,0.00,,,0.00,meteohub,2013-02-09 00:10:00,
2013-02-08 19:15:00,20.1,36.7,29.86,SE,128,4.0,8.0,92,0.00,,,0.00,meteohub,2013-02-09 00:15:00,
2013-02-08 19:20:00,20.1,36.7,29.86,SE,130,6.0,8.0,92,0.00,,,0.00,meteohub,2013-02-09 00:20:00,
2013-02-08 19:25:00,20.1,36.7,29.86,SE,138,4.0,11.0,92,0.00,,,0.00,meteohub,2013-02-09 00:25:00,
2013-02-08 19:30:00,20.3,36.7,29.86,East,101,1.0,11.0,92,0.00,,,0.00,meteohub,2013-02-09 00:30:00,
2013-02-08 19:35:00,20.3,36.7,29.85,ENE,78,4.0,11.0,92,0.00,,,0.00,meteohub,2013-02-09 00:35:00,
2013-02-08 19:40:00,20.3,36.7,29.84,SE,146,1.0,9.0,92,0.00,,,0.00,meteohub,2013-02-09 00:40:00,
2013-02-08 19:45:00,20.5,36.7,29.84,ESE,113,0.0,8.0,92,0.00,,,0.00,meteohub,2013-02-09 00:45:00,
2013-02-08 19:50:00,20.5,36.7,29.83,SSE,150,4.0,8.0,92,0.00,,,0.00,meteohub,2013-02-09 00:50:00,
2013-02-08 19:55:00,20.5,36.5,29.83,North,0,1.0,7.0,92,0.00,,,0.00,meteohub,2013-02-09 00:55:00,
2013-02-08 20:00:00,20.7,36.5,29.83,South,186,7.0,7.0,92,0.00,,,0.00,meteohub,2013-02-09 01:00:00,
2013-02-08 20:05:00,20.7,36.7,29.82,NNE,32,0.0,8.0,93,0.00,,,0.00,meteohub,2013-02-09 01:05:00,
2013-02-08 20:10:00,20.8,36.7,29.82,SE,137,0.0,8.0,93,0.00,,,0.00,meteohub,2013-02-09 01:10:00,
2013-02-08 20:15:00,20.8,36.7,29.82,ENE,61,4.0,8.0,93,0.00,,,0.00,meteohub,2013-02-09 01:15:00,
2013-02-08 20:20:00,20.8,36.7,29.81,SSW,199,5.0,9.0,93,0.00,,,0.00,meteohub,2013-02-09 01:20:00,
2013-02-08 20:25:00,20.8,36.7,29.81,SSE,157,1.0,9.0,93,0.00,,,0.00,meteohub,2013-02-09 01:25:00,
2013-02-08 20:30:00,21.0,36.5,29.81,South,175,0.0,9.0,93,0.00,,,0.00,meteohub,2013-02-09 01:30:00,
2013-02-08 20:35:00,21.0,36.5,29.81,ESE,122,2.0,9.0,93,0.00,,,0.00,meteohub,2013-02-09 01:35:00,
2013-02-08 20:40:00,20.8,36.5,29.81,ENE,77,4.0,9.0,93,0.00,,,0.00,meteohub,2013-02-09 01:40:00,
2013-02-08 20:45:00,20.8,36.7,29.80,SE,129,7.0,9.0,93,0.00,,,0.00,meteohub,2013-02-09 01:45:00,
2013-02-08 20:50:00,20.7,36.7,29.80,East,86,1.0,9.0,93,0.00,,,0.00,meteohub,2013-02-09 01:50:00,
2013-02-08 20:55:00,20.7,36.7,29.79,ESE,115,4.0,9.0,93,0.00,,,0.00,meteohub,2013-02-09 01:55:00,
2013-02-08 21:01:00,20.7,36.7,29.80,ESE,121,2.0,9.0,93,0.00,,,0.00,meteohub,2013-02-09 02:01:00,
2013-02-08 21:06:00,20.7,36.7,29.79,SE,125,5.0,8.0,93,0.00,,,0.00,meteohub,2013-02-09 02:06:00,
2013-02-08 21:11:00,20.5,36.5,29.78,ESE,115,1.0,11.0,93,0.00,,,0.00,meteohub,2013-02-09 02:11:00,
2013-02-08 21:16:00,20.5,36.5,29.78,SE,133,7.0,11.0,93,0.00,,,0.00,meteohub,2013-02-09 02:16:00,
2013-02-08 21:21:00,20.5,36.5,29.77,SE,141,5.0,11.0,93,0.00,,,0.00,meteohub,2013-02-09 02:21:00,
2013-02-08 21:26:00,20.3,36.7,29.77,NE,41,0.0,10.0,93,0.00,,,0.00,meteohub,2013-02-09 02:26:00,
2013-02-08 21:31:00,20.1,36.7,29.77,SSE,149,1.0,10.0,92,0.00,,,0.00,meteohub,2013-02-09 02:31:00,
2013-02-08 21:36:00,20.1,36.7,29.76,ESE,121,1.0,10.0,92,0.00,,,0.00,meteohub,2013-02-09 02:36:00,
2013-02-08 21:41:00,19.9,36.5,29.75,ENE,76,7.0,11.0,92,0.00,,,0.00,meteohub,2013-02-09 02:41:00,
2013-02-08 21:46:00,19.8,36.5,29.75,ESE,119,5.0,12.0,92,0.00,,,0.00,meteohub,2013-02-09 02:46:00,
2013-02-08 21:51:00,19.8,36.7,29.74,SE,146,5.0,12.0,92,0.00,,,0.00,meteohub,2013-02-09 02:51:00,
2013-02-08 21:56:00,19.8,36.7,29.74,SE,134,6.0,12.0,92,0.00,,,0.00,meteohub,2013-02-09 02:56:00,
2013-02-08 22:01:00,19.2,36.9,29.73,SE,142,4.0,9.0,92,0.00,,,0.00,meteohub,2013-02-09 03:01:00,
2013-02-08 22:06:00,19.0,36.7,29.73,SSW,207,6.0,10.0,92,0.00,,,0.00,meteohub,2013-02-09 03:06:00,
2013-02-08 22:11:00,18.9,36.7,29.73,NNE,29,0.0,10.0,92,0.00,,,0.00,meteohub,2013-02-09 03:11:00,
2013-02-08 22:16:00,18.7,36.7,29.72,South,172,5.0,10.0,92,0.00,,,0.00,meteohub,2013-02-09 03:16:00,
2013-02-08 22:21:00,18.5,36.5,29.71,SW,217,2.0,10.0,92,0.00,,,0.00,meteohub,2013-02-09 03:21:00,
2013-02-08 22:26:00,18.3,36.7,29.70,SSE,157,4.0,10.0,92,0.00,,,0.00,meteohub,2013-02-09 03:26:00,
2013-02-08 22:31:00,18.3,36.7,29.71,SSE,148,4.0,10.0,92,0.00,,,0.00,meteohub,2013-02-09 03:31:00,
2013-02-08 22:36:00,18.1,36.7,29.72,ESE,117,10.0,11.0,92,0.00,,,0.00,meteohub,2013-02-09 03:36:00,
2013-02-08 22:41:00,18.1,36.7,29.71,SSE,160,0.0,14.0,92,0.00,,,0.00,meteohub,2013-02-09 03:41:00,
2013-02-08 22:46:00,18.1,36.7,29.71,SSE,154,4.0,14.0,92,0.00,,,0.00,meteohub,2013-02-09 03:46:00,
2013-02-08 22:51:00,18.1,36.7,29.70,ESE,119,1.0,14.0,92,0.00,,,0.00,meteohub,2013-02-09 03:51:00,
2013-02-08 22:56:00,18.0,36.5,29.69,SE,133,7.0,11.0,92,0.00,,,0.00,meteohub,2013-02-09 03:56:00,
2013-02-08 23:01:00,18.0,36.5,29.68,South,172,3.0,11.0,92,0.00,,,0.00,meteohub,2013-02-09 04:01:00,
2013-02-08 23:06:00,18.0,36.3,29.68,North,11,7.0,11.0,92,0.00,,,0.00,meteohub,2013-02-09 04:06:00,
2013-02-08 23:11:00,18.0,36.1,29.68,East,101,4.0,10.0,92,0.00,,,0.00,meteohub,2013-02-09 04:11:00,
2013-02-08 23:16:00,18.0,36.1,29.68,East,101,1.0,10.0,92,0.00,,,0.00,meteohub,2013-02-09 04:16:00,
2013-02-08 23:22:00,18.0,36.1,29.68,SE,140,4.0,10.0,92,0.00,,,0.00,meteohub,2013-02-09 04:22:00,
2013-02-08 23:27:00,18.0,36.1,29.68,SE,146,1.0,9.0,92,0.00,,,0.00,meteohub,2013-02-09 04:27:00,
2013-02-08 23:32:00,18.0,36.0,29.68,SE,134,4.0,9.0,92,0.00,,,0.00,meteohub,2013-02-09 04:32:00,
2013-02-08 23:37:00,18.0,35.8,29.68,SE,141,1.0,9.0,92,0.00,,,0.00,meteohub,2013-02-09 04:37:00,
2013-02-08 23:42:00,18.0,35.8,29.67,SE,138,7.0,13.0,92,0.00,,,0.00,meteohub,2013-02-09 04:42:00,
2013-02-08 23:47:00,18.1,35.6,29.67,SE,139,7.0,13.0,92,0.00,,,0.00,meteohub,2013-02-09 04:47:00,
2013-02-08 23:52:00,18.1,35.6,29.67,North,349,5.0,13.0,92,0.00,,,0.00,meteohub,2013-02-09 04:52:00,
2013-02-08 23:57:00,18.1,35.4,29.66,SSE,148,5.0,13.0,92,0.00,,,0.00,meteohub,2013-02-09 04:57:00,